contact:dominique.lefevre@mio.osupytheas.fr, maurice.libes@osupytheas.fr, didier.mallarino@osupytheas.fr
Project:EMSO http://www.emso-fr.org/EMSO-France
Depth: 2436.0 m
Title:EMSO Ligure Ouest : Data MII capteur CSTAR
DateTime,Latitude,Longitude,Instrument_Serial,Reference_Counts,Signal_Counts,Corrected_Signal_raw_counts,Calculated_Beam_c_inverse_meters,Internal_thermistor_counts
DateTime,Latitude,Longitude,Instrument_Serial,Reference_Counts,Signal_Counts,Corrected_Signal_raw_counts,Calculated_Beam_c_inverse_meters,Internal_thermistor_counts
2022-12-26T00:02:07,42.805,6.029,CST-1368DR,4433,4936,11835,01.109,551
2022-12-26T00:05:09,42.805,6.029,CST-1368DR,4433,4942,11851,01.104,551
2022-12-26T00:08:10,42.805,6.029,CST-1368DR,4433,4937,11838,01.108,551
2022-12-26T00:11:12,42.805,6.029,CST-1368DR,4433,4934,11831,01.110,551
2022-12-26T00:14:13,42.805,6.029,CST-1368DR,4433,4941,11847,01.105,551
2022-12-26T00:17:15,42.805,6.029,CST-1368DR,4433,4935,11833,01.110,551
2022-12-26T00:20:17,42.805,6.029,CST-1368DR,4433,4930,11822,01.113,551
2022-12-26T00:23:18,42.805,6.029,CST-1368DR,4433,4930,11822,01.113,551
2022-12-26T00:26:20,42.805,6.029,CST-1368DR,4433,4935,11835,01.109,551
2022-12-26T00:29:21,42.805,6.029,CST-1368DR,4433,4932,11826,01.112,551
2022-12-26T00:32:23,42.805,6.029,CST-1368DR,4433,4929,11820,01.114,551
2022-12-26T00:35:24,42.805,6.029,CST-1368DR,4433,4928,11818,01.115,551
2022-12-26T00:38:26,42.805,6.029,CST-1368DR,4433,4930,11821,01.114,551
2022-12-26T00:41:28,42.805,6.029,CST-1368DR,4433,4928,11817,01.115,551
2022-12-26T00:44:29,42.805,6.029,CST-1368DR,4433,4930,11821,01.114,551
2022-12-26T00:47:31,42.805,6.029,CST-1368DR,4433,4932,11826,01.112,551
2022-12-26T00:50:32,42.805,6.029,CST-1368DR,4433,4930,11821,01.114,551
2022-12-26T00:53:34,42.805,6.029,CST-1368DR,4433,4929,11819,01.114,551
2022-12-26T00:56:36,42.805,6.029,CST-1368DR,4433,4921,11800,01.121,551
2022-12-26T00:59:37,42.805,6.029,CST-1368DR,4433,4929,11820,01.114,551
2022-12-26T01:02:39,42.805,6.029,CST-1368DR,4433,4931,11823,01.113,551
2022-12-26T01:05:40,42.805,6.029,CST-1368DR,4433,4930,11822,01.113,551
2022-12-26T01:08:42,42.805,6.029,CST-1368DR,4433,4930,11821,01.114,551
2022-12-26T01:11:43,42.805,6.029,CST-1368DR,4433,4931,11824,01.113,551
2022-12-26T01:14:45,42.805,6.029,CST-1368DR,4433,4928,11818,01.115,551
2022-12-26T01:17:47,42.805,6.029,CST-1368DR,4433,4929,11819,01.114,551
2022-12-26T01:20:48,42.805,6.029,CST-1368DR,4433,4929,11820,01.114,551
2022-12-26T01:23:50,42.805,6.029,CST-1368DR,4433,4930,11821,01.114,551
2022-12-26T01:26:51,42.805,6.029,CST-1368DR,4433,4930,11821,01.114,551
2022-12-26T01:29:53,42.805,6.029,CST-1368DR,4433,4924,11808,01.118,551
2022-12-26T01:32:55,42.805,6.029,CST-1368DR,4433,4922,11802,01.120,551
2022-12-26T01:35:56,42.805,6.029,CST-1368DR,4433,4925,11811,01.117,551
2022-12-26T01:38:58,42.805,6.029,CST-1368DR,4433,4922,11803,01.120,551
2022-12-26T01:41:59,42.805,6.029,CST-1368DR,4433,4920,11797,01.122,551
2022-12-26T01:45:01,42.805,6.029,CST-1368DR,4433,4922,11802,01.120,551
2022-12-26T01:48:02,42.805,6.029,CST-1368DR,4433,4921,11801,01.120,552
2022-12-26T01:51:04,42.805,6.029,CST-1368DR,4433,4923,11806,01.119,551
2022-12-26T01:54:06,42.805,6.029,CST-1368DR,4433,4922,11802,01.120,551
2022-12-26T01:57:07,42.805,6.029,CST-1368DR,4433,4924,11807,01.118,551
2022-12-26T02:00:09,42.805,6.029,CST-1368DR,4433,4926,11812,01.117,551
2022-12-26T02:03:10,42.805,6.029,CST-1368DR,4433,4926,11812,01.117,551
2022-12-26T02:06:12,42.805,6.029,CST-1368DR,4433,4927,11814,01.116,551
2022-12-26T02:09:14,42.805,6.029,CST-1368DR,4433,4928,11818,01.115,551
2022-12-26T02:12:15,42.805,6.029,CST-1368DR,4433,4928,11816,01.115,551
2022-12-26T02:15:17,42.805,6.029,CST-1368DR,4433,4926,11812,01.117,551
2022-12-26T02:18:18,42.805,6.029,CST-1368DR,4433,4925,11809,01.118,551
2022-12-26T02:21:20,42.805,6.029,CST-1368DR,4433,4924,11808,01.118,551
2022-12-26T02:24:22,42.805,6.029,CST-1368DR,4433,4922,11803,01.120,551
2022-12-26T02:27:23,42.805,6.029,CST-1368DR,4433,4926,11811,01.117,551
2022-12-26T02:30:25,42.805,6.029,CST-1368DR,4433,4926,11811,01.117,551
2022-12-26T02:33:26,42.805,6.029,CST-1368DR,4433,4926,11813,01.116,551
2022-12-26T02:36:28,42.805,6.029,CST-1368DR,4433,4928,11817,01.115,551
2022-12-26T02:39:29,42.805,6.029,CST-1368DR,4433,4928,11818,01.115,551
2022-12-26T02:42:31,42.805,6.029,CST-1368DR,4433,4927,11815,01.116,551
2022-12-26T02:45:33,42.805,6.029,CST-1368DR,4433,4929,11818,01.115,551
2022-12-26T02:48:34,42.805,6.029,CST-1368DR,4433,4929,11818,01.115,551
2022-12-26T02:51:36,42.805,6.029,CST-1368DR,4433,4927,11815,01.116,551
2022-12-26T02:54:37,42.805,6.029,CST-1368DR,4433,4928,11817,01.115,551
2022-12-26T02:57:39,42.805,6.029,CST-1368DR,4433,4927,11815,01.116,551
2022-12-26T03:00:41,42.805,6.029,CST-1368DR,4433,4927,11814,01.116,551
2022-12-26T03:03:42,42.805,6.029,CST-1368DR,4433,4927,11815,01.116,551
2022-12-26T03:06:44,42.805,6.029,CST-1368DR,4433,4927,11815,01.116,551
2022-12-26T03:09:45,42.805,6.029,CST-1368DR,4433,4929,11818,01.115,551
2022-12-26T03:12:47,42.805,6.029,CST-1368DR,4433,4927,11815,01.116,551
2022-12-26T03:15:48,42.805,6.029,CST-1368DR,4433,4924,11808,01.118,551
2022-12-26T03:18:50,42.805,6.029,CST-1368DR,4433,4925,11811,01.117,551
2022-12-26T03:21:52,42.805,6.029,CST-1368DR,4433,4926,11812,01.117,551
2022-12-26T03:24:53,42.805,6.029,CST-1368DR,4433,4926,11812,01.117,551
2022-12-26T03:27:55,42.805,6.029,CST-1368DR,4433,4927,11815,01.116,551
2022-12-26T03:30:56,42.805,6.029,CST-1368DR,4433,4928,11817,01.115,551
2022-12-26T03:33:58,42.805,6.029,CST-1368DR,4433,4929,11819,01.114,551
2022-12-26T03:37:00,42.805,6.029,CST-1368DR,4433,4929,11820,01.114,551
2022-12-26T03:40:01,42.805,6.029,CST-1368DR,4433,4928,11818,01.115,551
2022-12-26T03:43:03,42.805,6.029,CST-1368DR,4433,4928,11817,01.115,551
2022-12-26T03:46:04,42.805,6.029,CST-1368DR,4433,4926,11811,01.117,551
2022-12-26T03:49:06,42.805,6.029,CST-1368DR,4433,4926,11813,01.116,551
2022-12-26T03:52:07,42.805,6.029,CST-1368DR,4433,4927,11815,01.116,551
2022-12-26T03:55:09,42.805,6.029,CST-1368DR,4433,4929,11820,01.114,551
2022-12-26T03:58:11,42.805,6.029,CST-1368DR,4433,4929,11818,01.115,551
2022-12-26T04:01:12,42.805,6.029,CST-1368DR,4433,4928,11818,01.115,551
2022-12-26T04:04:14,42.805,6.029,CST-1368DR,4433,4930,11821,01.114,551
2022-12-26T04:07:15,42.805,6.029,CST-1368DR,4433,4930,11821,01.114,551
2022-12-26T04:10:17,42.805,6.029,CST-1368DR,4433,4929,11818,01.115,551
2022-12-26T04:13:19,42.805,6.029,CST-1368DR,4433,4926,11813,01.116,551
2022-12-26T04:16:20,42.805,6.029,CST-1368DR,4433,4928,11818,01.115,551
2022-12-26T04:19:22,42.805,6.029,CST-1368DR,4433,4928,11817,01.115,551
2022-12-26T04:22:23,42.805,6.029,CST-1368DR,4433,4928,11817,01.115,551
2022-12-26T04:25:25,42.805,6.029,CST-1368DR,4433,4926,11812,01.117,551
2022-12-26T04:28:27,42.805,6.029,CST-1368DR,4433,4927,11815,01.116,551
2022-12-26T04:31:28,42.805,6.029,CST-1368DR,4433,4928,11816,01.115,551
2022-12-26T04:34:30,42.805,6.029,CST-1368DR,4433,4928,11817,01.115,551
2022-12-26T04:37:31,42.805,6.029,CST-1368DR,4433,4926,11812,01.117,551
2022-12-26T04:40:33,42.805,6.029,CST-1368DR,4433,4928,11816,01.115,551
2022-12-26T04:43:34,42.805,6.029,CST-1368DR,4433,4927,11814,01.116,551
2022-12-26T04:46:36,42.805,6.029,CST-1368DR,4433,4926,11812,01.117,551
2022-12-26T04:49:38,42.805,6.029,CST-1368DR,4433,4926,11812,01.117,551
2022-12-26T04:52:39,42.805,6.029,CST-1368DR,4433,4926,11811,01.117,551
2022-12-26T04:55:41,42.805,6.029,CST-1368DR,4433,4928,11816,01.115,551
2022-12-26T04:58:42,42.805,6.029,CST-1368DR,4433,4928,11818,01.115,551
2022-12-26T05:01:44,42.805,6.029,CST-1368DR,4433,4929,11818,01.115,551
2022-12-26T05:04:46,42.805,6.029,CST-1368DR,4433,4929,11818,01.115,551
2022-12-26T05:07:47,42.805,6.029,CST-1368DR,4433,4928,11818,01.115,551
2022-12-26T05:10:49,42.805,6.029,CST-1368DR,4433,4931,11824,01.113,551
2022-12-26T05:13:50,42.805,6.029,CST-1368DR,4433,4932,11826,01.112,551
2022-12-26T05:16:52,42.805,6.029,CST-1368DR,4433,4931,11825,01.112,551
2022-12-26T05:19:53,42.805,6.029,CST-1368DR,4433,4932,11827,01.112,551
2022-12-26T05:22:55,42.805,6.029,CST-1368DR,4433,4932,11827,01.112,551
2022-12-26T05:25:57,42.805,6.029,CST-1368DR,4433,4929,11818,01.115,551
2022-12-26T05:28:58,42.805,6.029,CST-1368DR,4433,4932,11826,01.112,551
2022-12-26T05:32:00,42.805,6.029,CST-1368DR,4433,4929,11820,01.114,551
2022-12-26T05:35:01,42.805,6.029,CST-1368DR,4433,4935,11833,01.110,551
2022-12-26T05:38:03,42.805,6.029,CST-1368DR,4433,4935,11833,01.110,551
2022-12-26T05:41:05,42.805,6.029,CST-1368DR,4433,4932,11827,01.112,551
2022-12-26T05:44:06,42.805,6.029,CST-1368DR,4433,4933,11828,01.111,551
2022-12-26T05:47:08,42.805,6.029,CST-1368DR,4433,4931,11823,01.113,551
2022-12-26T05:50:09,42.805,6.029,CST-1368DR,4433,4929,11820,01.114,551
2022-12-26T05:53:11,42.805,6.029,CST-1368DR,4433,4931,11825,01.112,551
2022-12-26T05:56:12,42.805,6.029,CST-1368DR,4433,4927,11815,01.116,551
2022-12-26T05:59:14,42.805,6.029,CST-1368DR,4433,4928,11817,01.115,551
2022-12-26T06:02:16,42.805,6.029,CST-1368DR,4433,4927,11814,01.116,551
2022-12-26T06:05:17,42.805,6.029,CST-1368DR,4433,4931,11824,01.113,551
2022-12-26T06:08:19,42.805,6.029,CST-1368DR,4433,4932,11826,01.112,551
2022-12-26T06:11:20,42.805,6.029,CST-1368DR,4433,4931,11823,01.113,551
2022-12-26T06:14:22,42.805,6.029,CST-1368DR,4433,4930,11821,01.114,551
2022-12-26T06:17:24,42.805,6.029,CST-1368DR,4433,4928,11817,01.115,551
2022-12-26T06:20:25,42.805,6.029,CST-1368DR,4433,4931,11824,01.113,551
2022-12-26T06:23:27,42.805,6.029,CST-1368DR,4433,4934,11831,01.110,551
2022-12-26T06:26:28,42.805,6.029,CST-1368DR,4433,4931,11825,01.112,551
2022-12-26T06:29:30,42.805,6.029,CST-1368DR,4433,4928,11817,01.115,551
2022-12-26T06:32:31,42.805,6.029,CST-1368DR,4433,4931,11824,01.113,551
2022-12-26T06:35:33,42.805,6.029,CST-1368DR,4433,4978,11937,01.075,551
2022-12-26T06:38:35,42.805,6.029,CST-1368DR,4433,4977,11935,01.075,551
2022-12-26T06:41:36,42.805,6.029,CST-1368DR,4433,4977,11934,01.076,551
2022-12-26T06:44:38,42.805,6.029,CST-1368DR,4433,4979,11938,01.074,551
2022-12-26T06:47:39,42.805,6.029,CST-1368DR,4433,4977,11935,01.075,551
2022-12-26T06:50:41,42.805,6.029,CST-1368DR,4433,4977,11934,01.076,551
2022-12-26T06:53:43,42.805,6.029,CST-1368DR,4433,4978,11937,01.075,551
2022-12-26T06:56:44,42.805,6.029,CST-1368DR,4433,4978,11937,01.075,551
2022-12-26T06:59:46,42.805,6.029,CST-1368DR,4433,4979,11938,01.074,551
2022-12-26T07:02:47,42.805,6.029,CST-1368DR,4433,4978,11938,01.074,551
2022-12-26T07:05:49,42.805,6.029,CST-1368DR,4433,4977,11934,01.076,551
2022-12-26T07:08:51,42.805,6.029,CST-1368DR,4433,4979,11940,01.074,551
2022-12-26T07:11:52,42.805,6.029,CST-1368DR,4433,4977,11935,01.075,551
2022-12-26T07:14:54,42.805,6.029,CST-1368DR,4433,4979,11938,01.074,551
2022-12-26T07:17:55,42.805,6.029,CST-1368DR,4433,4977,11934,01.076,551
2022-12-26T07:20:57,42.805,6.029,CST-1368DR,4433,4979,11939,01.074,551
2022-12-26T07:23:58,42.805,6.029,CST-1368DR,4433,4978,11937,01.075,551
2022-12-26T07:27:00,42.805,6.029,CST-1368DR,4433,4978,11937,01.075,551
2022-12-26T07:30:02,42.805,6.029,CST-1368DR,4433,4976,11933,01.076,551
2022-12-26T07:33:03,42.805,6.029,CST-1368DR,4433,4979,11940,01.074,551
2022-12-26T07:36:05,42.805,6.029,CST-1368DR,4433,4979,11939,01.074,551
2022-12-26T07:39:06,42.805,6.029,CST-1368DR,4433,4977,11935,01.075,551
2022-12-26T07:42:08,42.805,6.029,CST-1368DR,4433,4977,11935,01.075,551
2022-12-26T07:45:10,42.805,6.029,CST-1368DR,4433,4977,11935,01.075,551
2022-12-26T07:48:11,42.805,6.029,CST-1368DR,4433,4978,11937,01.075,551
2022-12-26T07:51:13,42.805,6.029,CST-1368DR,4433,4978,11938,01.074,551
2022-12-26T07:54:14,42.805,6.029,CST-1368DR,4433,4977,11935,01.075,551
2022-12-26T07:57:16,42.805,6.029,CST-1368DR,4433,4979,11939,01.074,551
2022-12-26T08:00:17,42.805,6.029,CST-1368DR,4433,4978,11938,01.074,551
2022-12-26T08:03:19,42.805,6.029,CST-1368DR,4433,4979,11939,01.074,551
2022-12-26T08:06:21,42.805,6.029,CST-1368DR,4433,4978,11937,01.075,551
2022-12-26T08:09:22,42.805,6.029,CST-1368DR,4433,4978,11937,01.075,551
2022-12-26T08:12:24,42.805,6.029,CST-1368DR,4433,4979,11940,01.074,551
2022-12-26T08:15:25,42.805,6.029,CST-1368DR,4433,4978,11938,01.074,551
2022-12-26T08:18:27,42.805,6.029,CST-1368DR,4433,4979,11940,01.074,551
2022-12-26T08:21:29,42.805,6.029,CST-1368DR,4433,4974,11928,01.078,551
2022-12-26T08:24:30,42.805,6.029,CST-1368DR,4433,4977,11934,01.076,551
2022-12-26T08:27:32,42.805,6.029,CST-1368DR,4433,4977,11934,01.076,551
2022-12-26T08:30:33,42.805,6.029,CST-1368DR,4433,4977,11935,01.075,551
2022-12-26T08:33:35,42.805,6.029,CST-1368DR,4433,4979,11939,01.074,551
2022-12-26T08:36:36,42.805,6.029,CST-1368DR,4433,4978,11938,01.074,551
2022-12-26T08:39:38,42.805,6.029,CST-1368DR,4433,4980,11941,01.073,551
2022-12-26T08:42:40,42.805,6.029,CST-1368DR,4433,4979,11939,01.074,551
2022-12-26T08:45:41,42.805,6.029,CST-1368DR,4433,4977,11935,01.075,551
2022-12-26T08:48:43,42.805,6.029,CST-1368DR,4433,4979,11938,01.074,551
2022-12-26T08:51:44,42.805,6.029,CST-1368DR,4433,4979,11939,01.074,551
2022-12-26T08:54:46,42.805,6.029,CST-1368DR,4433,4978,11937,01.075,551
2022-12-26T08:57:48,42.805,6.029,CST-1368DR,4433,4981,11943,01.073,551
2022-12-26T09:00:49,42.805,6.029,CST-1368DR,4433,4979,11940,01.074,551
2022-12-26T09:03:51,42.805,6.029,CST-1368DR,4433,4979,11940,01.074,551
2022-12-26T09:06:52,42.805,6.029,CST-1368DR,4433,4980,11941,01.073,551
2022-12-26T09:09:54,42.805,6.029,CST-1368DR,4433,4980,11941,01.073,551
2022-12-26T09:12:55,42.805,6.029,CST-1368DR,4433,4979,11938,01.074,551
2022-12-26T09:15:57,42.805,6.029,CST-1368DR,4433,4979,11939,01.074,551
2022-12-26T09:18:59,42.805,6.029,CST-1368DR,4433,4979,11938,01.074,551
2022-12-26T09:22:00,42.805,6.029,CST-1368DR,4433,4977,11935,01.075,551
2022-12-26T09:25:02,42.805,6.029,CST-1368DR,4433,4970,11917,01.081,551
2022-12-26T09:28:03,42.805,6.029,CST-1368DR,4433,4959,11892,01.090,551
2022-12-26T09:31:05,42.805,6.029,CST-1368DR,4433,4979,11939,01.074,551
2022-12-26T09:34:07,42.805,6.029,CST-1368DR,4433,4977,11935,01.075,551
2022-12-26T09:37:08,42.805,6.029,CST-1368DR,4433,4986,11955,01.069,551
2022-12-26T09:40:10,42.805,6.029,CST-1368DR,4433,4986,11956,01.068,551
2022-12-26T09:43:11,42.805,6.029,CST-1368DR,4433,4986,11956,01.068,551
2022-12-26T09:46:13,42.805,6.029,CST-1368DR,4433,4986,11956,01.068,551
2022-12-26T09:49:14,42.805,6.029,CST-1368DR,4433,4986,11955,01.069,551
2022-12-26T09:52:16,42.805,6.029,CST-1368DR,4433,4985,11955,01.069,550
2022-12-26T09:55:18,42.805,6.029,CST-1368DR,4433,4981,11945,01.072,551
2022-12-26T09:58:19,42.805,6.029,CST-1368DR,4433,4985,11955,01.069,551
2022-12-26T10:01:21,42.805,6.029,CST-1368DR,4433,4983,11949,01.071,551
2022-12-26T10:04:22,42.805,6.029,CST-1368DR,4433,4986,11956,01.068,551
2022-12-26T10:07:24,42.805,6.029,CST-1368DR,4433,4982,11947,01.071,551
2022-12-26T10:10:26,42.805,6.029,CST-1368DR,4433,4985,11954,01.069,551
2022-12-26T10:13:27,42.805,6.029,CST-1368DR,4433,4986,11956,01.068,551
2022-12-26T10:16:29,42.805,6.029,CST-1368DR,4433,4985,11954,01.069,551
2022-12-26T10:19:30,42.805,6.029,CST-1368DR,4433,4986,11957,01.068,551
2022-12-26T10:22:32,42.805,6.029,CST-1368DR,4433,4985,11953,01.069,551
2022-12-26T10:25:33,42.805,6.029,CST-1368DR,4433,4985,11955,01.069,551
2022-12-26T10:28:35,42.805,6.029,CST-1368DR,4433,4986,11957,01.068,551
2022-12-26T10:31:37,42.805,6.029,CST-1368DR,4433,4986,11957,01.068,551
2022-12-26T10:34:38,42.805,6.029,CST-1368DR,4433,4986,11957,01.068,551
2022-12-26T10:37:40,42.805,6.029,CST-1368DR,4433,4985,11954,01.069,550
2022-12-26T10:40:41,42.805,6.029,CST-1368DR,4433,4985,11953,01.069,551
2022-12-26T10:43:43,42.805,6.029,CST-1368DR,4433,4985,11955,01.069,551
2022-12-26T10:46:45,42.805,6.029,CST-1368DR,4433,4986,11955,01.069,551
2022-12-26T10:49:46,42.805,6.029,CST-1368DR,4433,4986,11955,01.069,551
2022-12-26T10:52:48,42.805,6.029,CST-1368DR,4433,4985,11953,01.069,551
2022-12-26T10:55:49,42.805,6.029,CST-1368DR,4433,4985,11955,01.069,551
2022-12-26T10:58:51,42.805,6.029,CST-1368DR,4433,4985,11953,01.069,551
2022-12-26T11:01:52,42.805,6.029,CST-1368DR,4433,4983,11949,01.071,551
2022-12-26T11:04:54,42.805,6.029,CST-1368DR,4433,4983,11949,01.071,551
2022-12-26T11:07:56,42.805,6.029,CST-1368DR,4433,4979,11940,01.074,551
2022-12-26T11:10:57,42.805,6.029,CST-1368DR,4433,4984,11950,01.070,551
2022-12-26T11:13:59,42.805,6.029,CST-1368DR,4433,4982,11946,01.072,551
2022-12-26T11:17:00,42.805,6.029,CST-1368DR,4433,4977,11935,01.075,551
2022-12-26T11:20:02,42.805,6.029,CST-1368DR,4433,4976,11933,01.076,551
2022-12-26T11:23:04,42.805,6.029,CST-1368DR,4433,4974,11928,01.078,551
2022-12-26T11:26:05,42.805,6.029,CST-1368DR,4433,4972,11923,01.079,551
2022-12-26T11:29:07,42.805,6.029,CST-1368DR,4433,4973,11925,01.079,551
2022-12-26T11:32:08,42.805,6.029,CST-1368DR,4433,4975,11931,01.077,551
2022-12-26T11:35:10,42.805,6.029,CST-1368DR,4433,4974,11927,01.078,551
2022-12-26T11:38:11,42.805,6.029,CST-1368DR,4433,4970,11918,01.081,551
2022-12-26T11:41:13,42.805,6.029,CST-1368DR,4433,4973,11925,01.079,551
2022-12-26T11:44:15,42.805,6.029,CST-1368DR,4433,4968,11914,01.082,551
2022-12-26T11:47:16,42.805,6.029,CST-1368DR,4433,4972,11923,01.079,551
2022-12-26T11:50:18,42.805,6.029,CST-1368DR,4433,4976,11931,01.077,551
2022-12-26T11:53:19,42.805,6.029,CST-1368DR,4433,4969,11914,01.082,551
2022-12-26T11:56:21,42.805,6.029,CST-1368DR,4433,4972,11922,01.080,551
2022-12-26T11:59:23,42.805,6.029,CST-1368DR,4433,4972,11923,01.079,551
2022-12-26T12:02:24,42.805,6.029,CST-1368DR,4433,4973,11925,01.079,551
2022-12-26T12:05:26,42.805,6.029,CST-1368DR,4433,4972,11923,01.079,551
2022-12-26T12:08:27,42.805,6.029,CST-1368DR,4433,4971,11920,01.080,551
2022-12-26T12:11:29,42.805,6.029,CST-1368DR,4433,4970,11918,01.081,551
2022-12-26T12:14:31,42.805,6.029,CST-1368DR,4433,4968,11913,01.083,551
2022-12-26T12:17:32,42.805,6.029,CST-1368DR,4433,4963,11900,01.087,551
2022-12-26T12:20:34,42.805,6.029,CST-1368DR,4433,4965,11905,01.085,551
2022-12-26T12:23:35,42.805,6.029,CST-1368DR,4433,4962,11898,01.088,551
2022-12-26T12:26:37,42.805,6.029,CST-1368DR,4433,4966,11909,01.084,551
2022-12-26T12:29:38,42.805,6.029,CST-1368DR,4433,4970,11918,01.081,551
2022-12-26T12:32:40,42.805,6.029,CST-1368DR,4433,4969,11916,01.082,551
2022-12-26T12:35:42,42.805,6.029,CST-1368DR,4433,4971,11919,01.081,551
2022-12-26T12:38:43,42.805,6.029,CST-1368DR,4433,4970,11917,01.081,551
2022-12-26T12:41:45,42.805,6.029,CST-1368DR,4433,4968,11914,01.082,551
2022-12-26T12:44:46,42.805,6.029,CST-1368DR,4433,4967,11910,01.084,551
2022-12-26T12:47:48,42.805,6.029,CST-1368DR,4432,4958,11892,01.090,551
2022-12-26T12:50:50,42.805,6.029,CST-1368DR,4432,4964,11905,01.085,551
2022-12-26T12:53:51,42.805,6.029,CST-1368DR,4432,4965,11908,01.084,551
2022-12-26T12:56:53,42.805,6.029,CST-1368DR,4433,4966,11909,01.084,551
2022-12-26T12:59:54,42.805,6.029,CST-1368DR,4433,4966,11907,01.085,551
2022-12-26T13:02:56,42.805,6.029,CST-1368DR,4433,4964,11902,01.086,551
2022-12-26T13:05:57,42.805,6.029,CST-1368DR,4433,4964,11904,01.086,551
2022-12-26T13:08:59,42.805,6.029,CST-1368DR,4433,4963,11900,01.087,551
2022-12-26T13:12:01,42.805,6.029,CST-1368DR,4432,4964,11905,01.085,551
2022-12-26T13:15:02,42.805,6.029,CST-1368DR,4433,4963,11901,01.087,551
2022-12-26T13:18:04,42.805,6.029,CST-1368DR,4433,4957,11887,01.091,551
2022-12-26T13:21:05,42.805,6.029,CST-1368DR,4433,4958,11888,01.091,551
2022-12-26T13:24:07,42.805,6.029,CST-1368DR,4432,4953,11880,01.094,551
2022-12-26T13:27:09,42.805,6.029,CST-1368DR,4433,4959,11892,01.090,551
2022-12-26T13:30:10,42.805,6.029,CST-1368DR,4432,4955,11885,01.092,551
2022-12-26T13:33:12,42.805,6.029,CST-1368DR,4432,4954,11883,01.093,551
2022-12-26T13:36:13,42.805,6.029,CST-1368DR,4432,4953,11880,01.094,551
2022-12-26T13:39:15,42.805,6.029,CST-1368DR,4432,4953,11880,01.094,551
2022-12-26T13:42:16,42.805,6.029,CST-1368DR,4432,4952,11878,01.094,551
2022-12-26T13:45:18,42.805,6.029,CST-1368DR,4432,4952,11878,01.094,551
2022-12-26T13:48:20,42.805,6.029,CST-1368DR,4432,4950,11871,01.097,551
2022-12-26T13:51:21,42.805,6.029,CST-1368DR,4432,4952,11876,01.095,551
2022-12-26T13:54:23,42.805,6.029,CST-1368DR,4432,4952,11878,01.094,551
2022-12-26T13:57:24,42.805,6.029,CST-1368DR,4432,4952,11877,01.095,551
2022-12-26T14:00:26,42.805,6.029,CST-1368DR,4432,4955,11884,01.092,551
2022-12-26T14:03:28,42.805,6.029,CST-1368DR,4432,4952,11877,01.095,551
2022-12-26T14:06:29,42.805,6.029,CST-1368DR,4432,4948,11868,01.098,551
2022-12-26T14:09:31,42.805,6.029,CST-1368DR,4432,4952,11877,01.095,551
2022-12-26T14:12:32,42.805,6.029,CST-1368DR,4432,4948,11867,01.098,551
2022-12-26T14:15:34,42.805,6.029,CST-1368DR,4432,4950,11871,01.097,551
2022-12-26T14:18:35,42.805,6.029,CST-1368DR,4432,4956,11888,01.091,551
2022-12-26T14:21:37,42.805,6.029,CST-1368DR,4432,4948,11867,01.098,551
2022-12-26T14:24:39,42.805,6.029,CST-1368DR,4432,4952,11878,01.094,551
2022-12-26T14:27:40,42.805,6.029,CST-1368DR,4432,4953,11880,01.094,551
2022-12-26T14:30:42,42.805,6.029,CST-1368DR,4432,4954,11883,01.093,551
2022-12-26T14:33:43,42.805,6.029,CST-1368DR,4432,4959,11895,01.089,551
2022-12-26T14:36:45,42.805,6.029,CST-1368DR,4432,4957,11888,01.091,551
2022-12-26T14:39:47,42.805,6.029,CST-1368DR,4432,4954,11882,01.093,551
2022-12-26T14:42:48,42.805,6.029,CST-1368DR,4432,4951,11876,01.095,551
2022-12-26T14:45:50,42.805,6.029,CST-1368DR,4432,4954,11883,01.093,551
2022-12-26T14:48:51,42.805,6.029,CST-1368DR,4432,4955,11885,01.092,551
2022-12-26T14:51:53,42.805,6.029,CST-1368DR,4432,4963,11903,01.086,551
2022-12-26T14:54:54,42.805,6.029,CST-1368DR,4432,4949,11870,01.097,551
2022-12-26T14:57:56,42.805,6.029,CST-1368DR,4432,4949,11870,01.097,551
2022-12-26T15:00:58,42.805,6.029,CST-1368DR,4432,4953,11880,01.094,551
2022-12-26T15:03:59,42.805,6.029,CST-1368DR,4432,4953,11880,01.094,551
2022-12-26T15:07:01,42.805,6.029,CST-1368DR,4432,4950,11872,01.096,551
2022-12-26T15:10:02,42.805,6.029,CST-1368DR,4432,4945,11859,01.101,551
2022-12-26T15:13:04,42.805,6.029,CST-1368DR,4432,4949,11869,01.097,551
2022-12-26T15:16:06,42.805,6.029,CST-1368DR,4432,4950,11873,01.096,551
2022-12-26T15:19:07,42.805,6.029,CST-1368DR,4432,4949,11870,01.097,551
2022-12-26T15:22:09,42.805,6.029,CST-1368DR,4432,4948,11868,01.098,551
2022-12-26T15:25:10,42.805,6.029,CST-1368DR,4432,4953,11879,01.094,551
2022-12-26T15:28:12,42.805,6.029,CST-1368DR,4432,4950,11873,01.096,551
2022-12-26T15:31:13,42.805,6.029,CST-1368DR,4432,4950,11873,01.096,551
2022-12-26T15:34:15,42.805,6.029,CST-1368DR,4432,4950,11871,01.097,551
2022-12-26T15:37:17,42.805,6.029,CST-1368DR,4432,4949,11871,01.097,551
2022-12-26T15:40:18,42.805,6.029,CST-1368DR,4432,4948,11867,01.098,551
2022-12-26T15:43:20,42.805,6.029,CST-1368DR,4432,4946,11864,01.099,551
2022-12-26T15:46:21,42.805,6.029,CST-1368DR,4432,4946,11862,01.100,551
2022-12-26T15:49:23,42.805,6.029,CST-1368DR,4432,4948,11867,01.098,551
2022-12-26T15:52:25,42.805,6.029,CST-1368DR,4432,4949,11870,01.097,551
2022-12-26T15:55:26,42.805,6.029,CST-1368DR,4432,4950,11873,01.096,551
2022-12-26T15:58:28,42.805,6.029,CST-1368DR,4432,4949,11870,01.097,551
2022-12-26T16:01:29,42.805,6.029,CST-1368DR,4432,4948,11868,01.098,551
2022-12-26T16:04:31,42.805,6.029,CST-1368DR,4432,4947,11864,01.099,551
2022-12-26T16:07:32,42.805,6.029,CST-1368DR,4432,4941,11851,01.104,551
2022-12-26T16:10:34,42.805,6.029,CST-1368DR,4432,4942,11852,01.103,551
2022-12-26T16:13:36,42.805,6.029,CST-1368DR,4432,4944,11858,01.101,551
2022-12-26T16:16:37,42.805,6.029,CST-1368DR,4432,4945,11859,01.101,551
2022-12-26T16:19:39,42.805,6.029,CST-1368DR,4432,4946,11864,01.099,551
2022-12-26T16:22:40,42.805,6.029,CST-1368DR,4432,4948,11868,01.098,551
2022-12-26T16:25:42,42.805,6.029,CST-1368DR,4432,4949,11869,01.097,551
2022-12-26T16:28:44,42.805,6.029,CST-1368DR,4432,4946,11863,01.099,551
2022-12-26T16:31:45,42.805,6.029,CST-1368DR,4432,4947,11866,01.098,551
2022-12-26T16:34:47,42.805,6.029,CST-1368DR,4432,4947,11865,01.099,551
2022-12-26T16:37:48,42.805,6.029,CST-1368DR,4432,4938,11843,01.106,551